Regional Weather Roundup
Issued by NWS San Diego, CA

Home | Current Version | Previous Version | Text Only | Print | Product List | Glossary On
Versions: 1 2 3 4 5 6 7 8 9 10 11 12 13 14 15 16 17 18 19 20 21 22 23 24 25 26 27 28 29 30 31 32 33 34 35 36 37 38 39 40 41 42 43 44 45 46 47 48 49 50
000
ASUS46 KSGX 221711
RWRSGX

SAN DIEGO HOURLY WEATHER ROUNDUP
NATIONAL WEATHER SERVICE SAN DIEGO CA
1000 AM PDT SAT JUL 22 2017

NOTE: "FAIR" INDICATES FEW OR NO CLOUDS BELOW 12,000 FEET WITH NO
SIGNIFICANT WEATHER AND/OR OBSTRUCTIONS TO VISIBILITY.

CAZ042-043-060-061-PZZ750-775-221800-

GREATER SAN DIEGO AREA

CITY           SKY/WX    TMP DP  RH WIND       PRES   REMARKS
SAN DIEGO AP   PTSUNNY   72  64  76 S7        29.95R
NATIONAL CITY    N/A     72  66  81 SW2       29.95R
CHULA VISTA      N/A     73  67  81 W6        29.85S
IMPERIAL BEACH CLOUDY    71  63  75 VRB5      29.94S
BROWN FIELD    MOSUNNY   75  64  68 VRB3      29.93S
MIRAMAR MCAS   MOSUNNY   81  62  52 MISG      29.93S
MONTGOMERY FLD MOSUNNY   76  63  64 CALM      29.93S
GILLESPIE FLD  SUNNY     75  64  69 CALM      29.92F

$$

NORTH SAN DIEGO COUNTY

CITY           SKY/WX    TMP DP  RH WIND       PRES   REMARKS
CAMP PENDLETON SUNNY     67  32  27 SW5       29.91F HAZE
OCEANSIDE AP   SUNNY     76  65  68 VRB3      29.91S
OCEANSIDE HBR    N/A     73  66  77 CALM      29.94S
VISTA            N/A     73  65  78 CALM      29.90S
CARLSBAD       MOSUNNY   72  65  78 S3        29.92S
DEL MAR          N/A     71  66  83 CALM      29.95R
LA JOLLA SCRIP   N/A     70  66  86 W3        29.93R
FALLBROOK        N/A     75  68  80 CALM      29.93F
ESCONDIDO        N/A     78  66  65 CALM      29.92F
SAN MARCOS       N/A     75  65  72 W1        29.93F
POWAY            N/A     77  66  68 CALM      29.93S

$$

EAST SAN DIEGO COUNTY

CITY           SKY/WX    TMP DP  RH WIND       PRES   REMARKS
RAMONA         SUNNY     81  61  50 VRB5      29.94F
SANTEE LAKES     N/A     77  67  70 CALM      29.90F
LA MESA          N/A     74  65  75 SW3       29.85S
JAMUL            N/A     75  67  75 CALM      29.91S
DESCANSO N       N/A     85  51  29 SW3       29.82S
CAMPO            N/A     91  25   9 SW7       29.95S

$$

ORANGE COUNTY AND THE LOS ANGELES BASIN

CITY           SKY/WX    TMP DP  RH WIND       PRES   REMARKS
JOHN WAYNE AP  MOSUNNY   75  64  68 VRB5      29.92F
LAKE FOREST FR   N/A     74  62  65 CALM      29.81F
HUNTINGTON BCH   N/A     75  68  78 SW3       29.94F
LOS ALAMITOS   MOSUNNY   75  64  68 CALM      29.92F
FULLERTON      SUNNY     76  65  68 VRB3      29.91F
LONG BEACH     SUNNY     76  64  66 MISG      29.92F
L.A. AP        MOSUNNY   75  65  70 W10       29.92F
L.A. DOWNTOWN  SUNNY     79  65  62 CALM      29.91F

$$

THE INLAND EMPIRE

CITY           SKY/WX    TMP DP  RH WIND       PRES   REMARKS
CORONA         SUNNY     77  65  66 NW5       29.93F
CHINO          SUNNY     81  63  54 CALM      29.94F HAZE
ONTARIO        SUNNY     78  62  57 N3        29.93F
SAN BERNARDINO SUNNY     81  59  47 SW3       29.94S HAZE
RIVERSIDE AP   SUNNY     78  64  61 NW6       29.93F
MORENO VALLEY    N/A     83  66  55 S2        28.05S
MARCH ARB      SUNNY     82  60  47 CALM      29.94F
HORSETHIEF CYN   N/A     80  56  43 NE8       29.89F
PERRIS           N/A     80  62  53 W1        29.94F
HEMET EAST       N/A     80  49  33 S2        29.93F
FRENCH VALLEY  FAIR      81  57  44 S3        29.94S
TEMECULA         N/A     77  63  63 CALM      29.97F

$$

SAN BERNARDINO AND RIVERSIDE COUNTY MOUNTAINS

CITY           SKY/WX    TMP DP  RH WIND       PRES   REMARKS
BIG BEAR AP    SUNNY     73  37  27 W3        30.29S
ANGELUS OAKS     N/A     77  51  40 CALM      29.78S
PINE COVE        N/A     78  46  32 CALM      29.84F

$$

SOUTHERN DESERT INCLUDING THE COACHELLA VALLEY

CITY           SKY/WX    TMP DP  RH WIND       PRES   REMARKS
PALM SPRINGS   SUNNY     97  49  19 VRB5      29.87S
THOUSAND PALMS   N/A     96  54  24 E2        29.82S
PALM DESERT      N/A     98  58  26 NE1       28.42S HX  97
THERMAL        SUNNY     96  63  33 S6        29.80F HX  97
BLYTHE         SUNNY     99  57  24 SE13      29.84S HX  98
IMPERIAL AP    SUNNY     94  71  47 VRB3      29.81S HX 101
EL CENTRO NAS  MOSUNNY   95  65  37 N6        29.83S HX  97
YUMA AZ        SUNNY     97  66  36 SE12      29.83S HX 100
MEXICALI       SUNNY     91  70  49 SE7       29.84R HX  97

$$

UPPER DESERT

CITY           SKY/WX    TMP DP  RH WIND       PRES   REMARKS
VICTORVILLE AP SUNNY     86  28  12 CALM      30.02F
HESPERIA         N/A     87  42  20 S3        29.97F
PALMDALE       SUNNY     87  36  16 N6        30.01S
LANCASTER      SUNNY     89  35  14 CALM      29.99F
EDWARDS AFB    SUNNY     83  33  16 W1        29.98S
DAGGETT        SUNNY     91  33  12 W14       29.94F
29 PALMS N     SUNNY     94  38  14 CALM      30.01F
NEEDLES        SUNNY    103  54  19 CALM      29.86S HX 101

$$

REGIONAL REPORTS

CITY           SKY/WX    TMP DP  RH WIND       PRES   REMARKS
SANTA BARBARA  PTSUNNY   67  63  87 S8        29.94S
SANDBERG       SUNNY     85  32  15 VRB3      30.14S
LAS VEGAS NV   MOSUNNY   97  47  18 CALM      29.95R
PHOENIX AZ     MOSUNNY   94  67  41 S6        29.90S HX  97
TIJUANA        SUNNY     73  64  73 SW6       29.96R
ENSENADA NW      N/A     70  32  24 W3        29.91S

$$

OFFSHORE ISLANDS

CITY           SKY/WX    TMP DP  RH WIND       PRES   REMARKS
CATALINA ARPT  SUNNY     74  61  63 SE5       29.97R
SAN NICOLAS IS CLOUDY    62  32  32 CALM      29.95R HAZE

$$

MARINE AND OFFSHORE BUOY REPORTS

STATION/POSITION SKY/WX   TEMP    WIND        PRES    VSBY  SWELL
                          AIR SEA DIR/SP/G                  HT/PER/DIR
                          (F)     (DEG/KT/KT) (MB)    (MI)  (FT/S/D)
TANNER BANKS               61 63  320/ 12/ 16 1013.8          7/330/ 8
S CLEMENTE BASIN              72  240/  4/  6 1013.9R         5/290/ 8
SAN NICOLAS IS.               62                N/A           2/170/14
SO. S. ROSA ISLA           57 62  310/ 17/ 21 1013.8S         5/310/ 8
W. S. BARBARA CH           56 57  310/ 17/ 21 1014.0S         5/290/ 8
M. S. BARBARA CH           63 66  160/  4/  4 1014.9R         3/250/ 6
S. MONICA BASIN               71  100/  8/ 10 1013.5R         3/240/ 8
S PEDRO CHANNEL               70                N/A           2/170/14
CMP PENDLETON NS              76                N/A           2/210/15
OCEANSIDE OFFSHR              75                N/A           2/190/14
TORREY PINES OTR              74                N/A           2/200/14
SAN DIEGO BAY                 77              1014.0R
POINT LOMA SOUTH              72                N/A           2/190/14

$$





USA.gov is the U.S. government's official web portal to all federal, state and local government web resources and services.